Flag for Canada Weather past 2 weeks in Cumberland County, Nova Scotia, Canada

Now
40 °F

Chilly.


Feels Like: 40 °F
Forecast: 29 / 36 °F
Wind: 1 mph from North

Location: Kentville

Current Time: Mar 27, 2015 at 4:18:37 PM

Latest Report: Mar 27, 2015 at 3:00 PM


Visibility: N/A

Pressure: 29.62 "Hg

Humidity: 83%

Dew point: 35 °F

Location of Cumberland CountyLocation

Historic Weather in Cumberland County — Graph

°F

Cumberland County temperature yesterday

Maximum temperature yesterday: 51 °F (at 5:00 PM)
Minimum temperature yesterday: 27 °F (at 1:00 AM)
Average temperature yesterday: 38 °F

Past Weeks' High & Low Weather Summary

 TemperatureHumidityPressure
High51 °F (Mar 26, 5:00 PM)100% (Mar 15, 4:00 AM)30.40 "Hg (Mar 15, 4:00 AM)
Low6 °F (Mar 14, 8:00 AM)22% (Mar 14, 3:00 PM)29.12 "Hg (Mar 18, 6:00 AM)
Average24 °F71%29.86 "Hg
* Reported Mar 12 3:00 PM — Mar 27 3:00 PM, Cumberland County, Weather by CustomWeather, © 2015

Note: Actual official high and low records may vary slightly from our data, if they occured in-between our weather recording intervals... More about our weather records

Advertising

Cumberland County weather history for previous 24 hours

 ConditionsComfort  
Time TempWeatherWind HumidityBarometerVisibility
3:00 PM
Fri, Mar 27
40 °FChilly.1 mph83%29.62 "HgN/A
2:00 PM41 °FQuite cool.No wind82%29.62 "HgN/A
1:00 PM38 °FChilly.5 mph93%29.62 "HgN/A
12:00 PM38 °FChilly.3 mph98%29.65 "HgN/A
11:00 AM38 °FChilly.2 mph98%29.66 "HgN/A
10:00 AM37 °FChilly.No wind99%29.63 "HgN/A
9:00 AM36 °FChilly.1 mph100%29.62 "HgN/A
8:00 AM36 °FChilly.No wind100%29.63 "HgN/A
7:00 AM35 °FChilly.2 mph100%29.58 "HgN/A
6:00 AM36 °FChilly.No wind100%29.60 "HgN/A
5:00 AM36 °FChilly.No wind99%29.59 "HgN/A
4:00 AM36 °FChilly.1 mph99%29.61 "HgN/A
3:00 AM36 °FChilly.No wind100%29.63 "HgN/A
2:00 AM36 °FChilly.3 mph100%29.63 "HgN/A
1:00 AM35 °FChilly.No wind99%29.64 "HgN/A
12:00 AM35 °FChilly.No wind99%29.66 "HgN/A
11:00 PM
Thu, Mar 26
36 °FChilly.1 mph99%29.68 "HgN/A
10:00 PM37 °FChilly.2 mph98%29.67 "HgN/A
9:00 PM38 °FChilly.2 mph97%29.67 "HgN/A
8:00 PM42 °FQuite cool.2 mph90%29.72 "HgN/A
7:00 PM46 °FCool.5 mph79%29.72 "HgN/A
6:00 PM49 °FCool.7 mph67%29.72 "HgN/A
5:00 PM51 °FCool.9 mph64%29.73 "HgN/A
4:00 PM49 °FCool.7 mph71%29.75 "HgN/A
Weather by CustomWeather, © 2015

See weather overviewHow to use our weather pages